Time,TemperatureF,DewpointF,PressureIn,WindDirection,WindDirectionDegrees,WindSpeedMPH,WindSpeedGustMPH,Humidity,HourlyPrecipIn,Conditions,Clouds,dailyrainin,SoftwareType,DateUTC
2013-06-13 00:03:00,71.0,67.6,30.08,ENE,57,7.0,7.0,89,0.00,,,0.00,VWS V14.01,2013-06-13 10:03:00,
2013-06-13 00:08:00,70.9,67.8,30.08,NE,40,6.0,6.0,90,0.00,,,0.00,VWS V14.01,2013-06-13 10:08:00,
2013-06-13 00:13:00,70.9,67.8,30.07,NE,38,17.0,17.0,90,0.00,,,0.00,VWS V14.01,2013-06-13 10:13:00,
2013-06-13 00:18:00,70.9,67.8,30.07,ENE,63,6.0,7.0,90,0.00,,,0.00,VWS V14.01,2013-06-13 10:18:00,
2013-06-13 00:23:00,70.8,68.1,30.07,ENE,59,7.0,10.0,91,0.00,,,0.00,VWS V14.01,2013-06-13 10:23:00,
2013-06-13 00:28:00,70.9,67.8,30.07,NE,50,6.0,6.0,90,0.00,,,0.00,VWS V14.01,2013-06-13 10:28:00,
2013-06-13 00:33:00,70.9,67.8,30.07,East,89,9.0,16.0,90,0.00,,,0.00,VWS V14.01,2013-06-13 10:33:00,
2013-06-13 00:39:00,71.0,67.9,30.07,NE,35,6.0,12.0,90,0.00,,,0.00,VWS V14.01,2013-06-13 10:39:00,
2013-06-13 00:44:00,71.0,67.9,30.07,NE,52,8.0,9.0,90,0.00,,,0.00,VWS V14.01,2013-06-13 10:44:00,
2013-06-13 00:49:00,71.0,67.9,30.07,East,80,7.0,16.0,90,0.00,,,0.00,VWS V14.01,2013-06-13 10:49:00,
2013-06-13 00:54:00,70.5,67.4,30.06,ENE,75,10.0,17.0,90,0.00,,,0.00,VWS V14.01,2013-06-13 10:54:00,
2013-06-13 00:59:00,70.3,67.6,30.06,ENE,71,7.0,7.0,91,0.00,,,0.00,VWS V14.01,2013-06-13 10:59:00,
2013-06-13 01:04:00,70.2,67.4,30.06,NE,43,13.0,13.0,91,0.00,,,0.00,VWS V14.01,2013-06-13 11:04:00,
2013-06-13 01:09:00,70.2,67.1,30.06,NE,42,7.0,10.0,90,0.00,,,0.00,VWS V14.01,2013-06-13 11:09:00,
2013-06-13 01:14:00,70.4,67.7,30.06,NE,54,6.0,6.0,91,0.00,,,0.00,VWS V14.01,2013-06-13 11:14:00,
2013-06-13 01:19:00,70.5,67.8,30.05,NE,45,11.0,11.0,91,0.00,,,0.00,VWS V14.01,2013-06-13 11:19:00,
2013-06-13 01:24:00,70.5,67.8,30.05,NE,44,12.0,13.0,91,0.00,,,0.00,VWS V14.01,2013-06-13 11:24:00,
2013-06-13 01:30:00,70.4,67.3,30.05,NE,39,7.0,7.0,90,0.00,,,0.00,VWS V14.01,2013-06-13 11:30:00,
2013-06-13 01:35:00,70.3,67.2,30.06,ENE,69,7.0,11.0,90,0.00,,,0.00,VWS V14.01,2013-06-13 11:35:00,
2013-06-13 01:40:00,70.4,67.3,30.05,NE,38,10.0,10.0,90,0.00,,,0.00,VWS V14.01,2013-06-13 11:40:00,
2013-06-13 01:45:00,70.5,67.4,30.05,East,101,6.0,6.0,90,0.00,,,0.00,VWS V14.01,2013-06-13 11:45:00,
2013-06-13 01:50:00,70.4,67.3,30.05,NE,53,3.0,3.0,90,0.00,,,0.00,VWS V14.01,2013-06-13 11:50:00,
2013-06-13 01:55:00,70.3,66.9,30.05,NNE,15,9.0,10.0,89,0.00,,,0.00,VWS V14.01,2013-06-13 11:55:00,
2013-06-13 02:00:00,70.3,66.6,30.04,NNE,18,17.0,17.0,88,0.00,,,0.00,VWS V14.01,2013-06-13 12:00:00,
2013-06-13 02:05:00,70.4,66.3,30.04,NNE,24,15.0,15.0,87,0.00,,,0.00,VWS V14.01,2013-06-13 12:05:00,
2013-06-13 02:10:00,70.6,66.6,30.04,NE,41,7.0,10.0,87,0.00,,,0.00,VWS V14.01,2013-06-13 12:10:00,
2013-06-13 02:15:00,70.7,67.0,30.04,NE,55,4.0,6.0,88,0.00,,,0.00,VWS V14.01,2013-06-13 12:15:00,
2013-06-13 02:20:00,70.6,67.2,30.04,NE,41,7.0,8.0,89,0.00,,,0.00,VWS V14.01,2013-06-13 12:20:00,
2013-06-13 02:25:00,70.5,67.1,30.04,NE,50,11.0,15.0,89,0.00,,,0.00,VWS V14.01,2013-06-13 12:25:00,
2013-06-13 02:31:00,70.4,67.0,30.04,NNE,23,6.0,9.0,89,0.00,,,0.00,VWS V14.01,2013-06-13 12:31:00,
2013-06-13 02:36:00,70.4,67.3,30.04,NE,35,7.0,8.0,90,0.00,,,0.00,VWS V14.01,2013-06-13 12:36:00,
2013-06-13 02:41:00,70.4,67.3,30.04,NE,44,10.0,11.0,90,0.00,,,0.00,VWS V14.01,2013-06-13 12:41:00,
2013-06-13 02:46:00,70.5,67.4,30.04,NNE,13,7.0,7.0,90,0.00,,,0.00,VWS V14.01,2013-06-13 12:46:00,
2013-06-13 02:51:00,70.5,67.4,30.04,NNE,31,9.0,13.0,90,0.00,,,0.00,VWS V14.01,2013-06-13 12:51:00,
2013-06-13 02:56:00,70.6,67.2,30.04,NNE,26,6.0,6.0,89,0.00,,,0.00,VWS V14.01,2013-06-13 12:56:00,
2013-06-13 03:01:00,70.5,67.1,30.04,NE,47,7.0,10.0,89,0.00,,,0.00,VWS V14.01,2013-06-13 13:01:00,
2013-06-13 03:06:00,70.6,66.9,30.04,NNE,14,15.0,17.0,88,0.00,,,0.00,VWS V14.01,2013-06-13 13:06:00,
2013-06-13 03:11:00,70.7,67.0,30.04,NNE,19,7.0,9.0,88,0.00,,,0.00,VWS V14.01,2013-06-13 13:11:00,
2013-06-13 03:16:00,70.7,67.0,30.04,NE,46,8.0,14.0,88,0.00,,,0.00,VWS V14.01,2013-06-13 13:16:00,
2013-06-13 03:21:00,70.8,67.1,30.03,ENE,73,4.0,7.0,88,0.00,,,0.00,VWS V14.01,2013-06-13 13:21:00,
2013-06-13 03:26:00,70.7,67.0,30.04,NNE,26,5.0,5.0,88,0.00,,,0.00,VWS V14.01,2013-06-13 13:26:00,
2013-06-13 03:31:00,70.7,67.0,30.04,NNE,20,14.0,14.0,88,0.00,,,0.00,VWS V14.01,2013-06-13 13:31:00,
2013-06-13 03:36:00,70.7,66.7,30.04,NNE,26,8.0,8.0,87,0.00,,,0.00,VWS V14.01,2013-06-13 13:36:00,
2013-06-13 03:41:00,70.6,66.6,30.04,NNE,19,5.0,5.0,87,0.00,,,0.00,VWS V14.01,2013-06-13 13:41:00,
2013-06-13 03:46:00,70.5,66.4,30.04,ENE,68,5.0,7.0,87,0.00,,,0.00,VWS V14.01,2013-06-13 13:46:00,
2013-06-13 03:52:00,70.5,66.4,30.04,NE,34,8.0,11.0,87,0.00,,,0.00,VWS V14.01,2013-06-13 13:52:00,
2013-06-13 03:57:00,70.6,66.6,30.04,NE,45,11.0,11.0,87,0.00,,,0.00,VWS V14.01,2013-06-13 13:57:00,
2013-06-13 04:02:00,70.7,66.7,30.04,SE,124,6.0,6.0,87,0.00,,,0.00,VWS V14.01,2013-06-13 14:02:00,
2013-06-13 04:07:00,70.6,66.9,30.04,NE,40,8.0,8.0,88,0.00,,,0.00,VWS V14.01,2013-06-13 14:07:00,
2013-06-13 04:12:00,70.6,66.9,30.04,East,89,10.0,10.0,88,0.00,,,0.00,VWS V14.01,2013-06-13 14:12:00,
2013-06-13 04:17:00,70.1,66.1,30.04,ENE,60,7.0,10.0,87,0.00,,,0.00,VWS V14.01,2013-06-13 14:17:00,
2013-06-13 04:22:00,70.1,66.1,30.04,NNE,31,10.0,11.0,87,0.00,,,0.00,VWS V14.01,2013-06-13 14:22:00,
2013-06-13 04:27:00,70.3,66.2,30.05,East,85,5.0,8.0,87,0.00,,,0.00,VWS V14.01,2013-06-13 14:27:00,
2013-06-13 04:32:00,70.2,66.5,30.05,NNE,22,11.0,13.0,88,0.00,,,0.00,VWS V14.01,2013-06-13 14:32:00,
2013-06-13 04:37:00,69.9,66.2,30.05,North,360,8.0,9.0,88,0.00,,,0.00,VWS V14.01,2013-06-13 14:37:00,
2013-06-13 04:42:00,69.9,66.2,30.04,North,9,12.0,13.0,88,0.00,,,0.00,VWS V14.01,2013-06-13 14:42:00,
2013-06-13 04:47:00,70.2,66.5,30.04,North,7,16.0,16.0,88,0.00,,,0.00,VWS V14.01,2013-06-13 14:47:00,
2013-06-13 04:52:00,70.3,66.6,30.04,NE,40,8.0,8.0,88,0.00,,,0.00,VWS V14.01,2013-06-13 14:52:00,
2013-06-13 04:58:00,70.4,67.0,30.04,North,10,11.0,11.0,89,0.00,,,0.00,VWS V14.01,2013-06-13 14:58:00,
2013-06-13 05:03:00,70.5,66.8,30.04,North,7,8.0,9.0,88,0.00,,,0.00,VWS V14.01,2013-06-13 15:03:00,
2013-06-13 05:08:00,70.5,67.1,30.04,NE,35,15.0,15.0,89,0.00,,,0.00,VWS V14.01,2013-06-13 15:08:00,
2013-06-13 05:13:00,70.5,67.1,30.05,NNE,17,11.0,11.0,89,0.00,,,0.00,VWS V14.01,2013-06-13 15:13:00,
2013-06-13 05:18:00,70.2,65.8,30.05,ENE,67,16.0,16.0,86,0.00,,,0.00,VWS V14.01,2013-06-13 15:18:00,
2013-06-13 05:23:00,69.9,65.5,30.05,East,97,8.0,10.0,86,0.00,,,0.00,VWS V14.01,2013-06-13 15:23:00,
2013-06-13 05:28:00,69.9,65.2,30.05,NE,35,8.0,9.0,85,0.00,,,0.00,VWS V14.01,2013-06-13 15:28:00,
2013-06-13 05:33:00,70.0,65.6,30.05,East,85,5.0,5.0,86,0.00,,,0.00,VWS V14.01,2013-06-13 15:33:00,
2013-06-13 05:38:00,70.1,65.7,30.05,NE,49,9.0,9.0,86,0.00,,,0.00,VWS V14.01,2013-06-13 15:38:00,
2013-06-13 05:43:00,70.2,66.2,30.05,North,9,12.0,12.0,87,0.00,,,0.00,VWS V14.01,2013-06-13 15:43:00,
2013-06-13 05:49:00,70.2,66.2,30.05,NE,55,6.0,7.0,87,0.00,,,0.00,VWS V14.01,2013-06-13 15:49:00,
2013-06-13 05:54:00,70.2,66.5,30.06,NNE,31,7.0,9.0,88,0.00,,,0.00,VWS V14.01,2013-06-13 15:54:00,
2013-06-13 05:59:00,70.4,66.7,30.06,ENE,68,11.0,11.0,88,0.00,,,0.00,VWS V14.01,2013-06-13 15:59:00,
2013-06-13 06:04:00,70.5,67.1,30.06,NNE,26,14.0,14.0,89,0.00,,,0.00,VWS V14.01,2013-06-13 16:04:00,
2013-06-13 06:09:00,70.6,67.2,30.06,NE,38,9.0,12.0,89,0.00,,,0.00,VWS V14.01,2013-06-13 16:09:00,
2013-06-13 06:14:00,70.7,67.0,30.06,North,7,11.0,13.0,88,0.00,,,0.00,VWS V14.01,2013-06-13 16:14:00,
2013-06-13 06:19:00,70.9,67.2,30.06,NNE,22,13.0,15.0,88,0.00,,,0.00,VWS V14.01,2013-06-13 16:19:00,
2013-06-13 06:24:00,71.3,67.2,30.07,NE,36,12.0,15.0,87,0.00,,,0.00,VWS V14.01,2013-06-13 16:24:00,
2013-06-13 06:30:00,71.6,67.2,30.07,NNE,28,5.0,8.0,86,0.00,,,0.00,VWS V14.01,2013-06-13 16:30:00,
2013-06-13 06:35:00,71.9,67.2,30.06,NNE,12,7.0,8.0,85,0.00,,,0.00,VWS V14.01,2013-06-13 16:35:00,
2013-06-13 06:40:00,72.2,67.4,30.07,ENE,61,10.0,12.0,85,0.00,,,0.00,VWS V14.01,2013-06-13 16:40:00,
2013-06-13 06:45:00,72.4,67.3,30.07,NNE,32,6.0,6.0,84,0.00,,,0.00,VWS V14.01,2013-06-13 16:45:00,
2013-06-13 06:50:00,72.6,67.2,30.07,NE,54,3.0,5.0,83,0.00,,,0.00,VWS V14.01,2013-06-13 16:50:00,
2013-06-13 06:55:00,72.8,67.0,30.07,NNE,15,7.0,7.0,82,0.00,,,0.00,VWS V14.01,2013-06-13 16:55:00,
2013-06-13 07:00:00,73.0,67.2,30.07,ENE,76,12.0,12.0,82,0.00,,,0.00,VWS V14.01,2013-06-13 17:00:00,
2013-06-13 07:05:00,73.1,67.3,30.07,NE,50,4.0,7.0,82,0.00,,,0.00,VWS V14.01,2013-06-13 17:05:00,
2013-06-13 07:10:00,73.1,67.3,30.07,ENE,59,9.0,9.0,82,0.00,,,0.00,VWS V14.01,2013-06-13 17:10:00,
2013-06-13 07:15:00,73.2,67.4,30.07,ENE,65,10.0,12.0,82,0.00,,,0.00,VWS V14.01,2013-06-13 17:15:00,
2013-06-13 07:21:00,73.2,67.4,30.08,East,85,9.0,9.0,82,0.00,,,0.00,VWS V14.01,2013-06-13 17:21:00,
2013-06-13 07:26:00,73.5,67.7,30.07,NE,52,17.0,17.0,82,0.00,,,0.00,VWS V14.01,2013-06-13 17:26:00,
2013-06-13 07:31:00,73.5,67.7,30.08,NE,54,10.0,13.0,82,0.00,,,0.00,VWS V14.01,2013-06-13 17:31:00,
2013-06-13 07:36:00,73.7,67.9,30.08,ENE,66,11.0,11.0,82,0.00,,,0.00,VWS V14.01,2013-06-13 17:36:00,
2013-06-13 07:41:00,73.7,67.9,30.08,ENE,57,8.0,9.0,82,0.00,,,0.00,VWS V14.01,2013-06-13 17:41:00,
2013-06-13 07:46:00,74.0,68.2,30.08,East,90,7.0,9.0,82,0.00,,,0.00,VWS V14.01,2013-06-13 17:46:00,
2013-06-13 07:51:00,74.1,67.9,30.08,ENE,57,14.0,14.0,81,0.00,,,0.00,VWS V14.01,2013-06-13 17:51:00,
2013-06-13 07:56:00,74.2,68.0,30.08,East,99,12.0,14.0,81,0.00,,,0.00,VWS V14.01,2013-06-13 17:56:00,
2013-06-13 08:01:00,74.2,68.0,30.08,ENE,73,16.0,16.0,81,0.00,,,0.00,VWS V14.01,2013-06-13 18:01:00,
2013-06-13 08:06:00,74.2,68.0,30.08,ENE,62,10.0,13.0,81,0.00,,,0.00,VWS V14.01,2013-06-13 18:06:00,
2013-06-13 08:12:00,74.6,68.0,30.08,NE,50,8.0,11.0,80,0.00,,,0.00,VWS V14.01,2013-06-13 18:12:00,
2013-06-13 08:17:00,74.7,67.4,30.08,ESE,112,10.0,10.0,78,0.00,,,0.00,VWS V14.01,2013-06-13 18:17:00,
2013-06-13 08:22:00,75.0,68.1,30.08,ESE,103,17.0,17.0,79,0.00,,,0.00,VWS V14.01,2013-06-13 18:22:00,
2013-06-13 08:27:00,75.0,68.1,30.08,ENE,71,11.0,12.0,79,0.00,,,0.00,VWS V14.01,2013-06-13 18:27:00,
2013-06-13 08:32:00,75.0,68.4,30.08,NNE,31,11.0,11.0,80,0.00,,,0.00,VWS V14.01,2013-06-13 18:32:00,
2013-06-13 08:37:00,75.3,68.7,30.08,ENE,78,16.0,16.0,80,0.00,,,0.00,VWS V14.01,2013-06-13 18:37:00,
2013-06-13 08:42:00,75.3,68.7,30.08,ENE,68,11.0,11.0,80,0.00,,,0.00,VWS V14.01,2013-06-13 18:42:00,
2013-06-13 08:47:00,75.6,68.6,30.08,ENE,58,14.0,14.0,79,0.00,,,0.00,VWS V14.01,2013-06-13 18:47:00,
2013-06-13 08:52:00,75.5,68.5,30.08,East,99,10.0,16.0,79,0.00,,,0.00,VWS V14.01,2013-06-13 18:52:00,
2013-06-13 08:57:00,75.7,68.0,30.08,East,101,11.0,14.0,77,0.00,,,0.00,VWS V14.01,2013-06-13 18:57:00,
2013-06-13 09:02:00,75.7,68.0,30.08,ENE,70,16.0,20.0,77,0.00,,,0.00,VWS V14.01,2013-06-13 19:02:00,
2013-06-13 09:07:00,75.5,68.2,30.08,ENE,61,7.0,14.0,78,0.00,,,0.00,VWS V14.01,2013-06-13 19:07:00,
2013-06-13 09:13:00,75.4,69.2,30.08,East,80,13.0,14.0,81,0.00,,,0.00,VWS V14.01,2013-06-13 19:13:00,
2013-06-13 09:18:00,75.8,68.5,30.09,ENE,62,15.0,21.0,78,0.00,,,0.00,VWS V14.01,2013-06-13 19:18:00,
2013-06-13 09:23:00,76.3,68.9,30.08,ENE,57,15.0,16.0,78,0.00,,,0.00,VWS V14.01,2013-06-13 19:23:00,
2013-06-13 09:28:00,76.2,68.5,30.09,East,100,18.0,19.0,77,0.00,,,0.00,VWS V14.01,2013-06-13 19:28:00,
2013-06-13 09:33:00,76.2,68.8,30.09,East,81,13.0,15.0,78,0.00,,,0.00,VWS V14.01,2013-06-13 19:33:00,
2013-06-13 09:38:00,75.7,68.0,30.09,East,93,12.0,16.0,77,0.00,,,0.00,VWS V14.01,2013-06-13 19:38:00,
2013-06-13 09:43:00,75.6,68.6,30.09,ENE,73,8.0,10.0,79,0.00,,,0.00,VWS V14.01,2013-06-13 19:43:00,
2013-06-13 09:48:00,75.4,68.4,30.09,East,81,21.0,21.0,79,0.00,,,0.00,VWS V14.01,2013-06-13 19:48:00,
2013-06-13 09:53:00,75.6,68.6,30.09,ENE,75,11.0,14.0,79,0.00,,,0.00,VWS V14.01,2013-06-13 19:53:00,
2013-06-13 09:58:00,75.7,68.7,30.09,NE,50,12.0,13.0,79,0.00,,,0.00,VWS V14.01,2013-06-13 19:58:00,
2013-06-13 10:03:00,75.8,68.8,30.09,ENE,58,16.0,16.0,79,0.00,,,0.00,VWS V14.01,2013-06-13 20:03:00,
2013-06-13 10:08:00,75.6,68.3,30.09,East,80,14.0,19.0,78,0.00,,,0.00,VWS V14.01,2013-06-13 20:08:00,
2013-06-13 10:13:00,75.5,68.5,30.09,ENE,66,17.0,21.0,79,0.00,,,0.00,VWS V14.01,2013-06-13 20:13:00,
2013-06-13 10:18:00,75.7,68.7,30.09,ENE,60,18.0,19.0,79,0.00,,,0.00,VWS V14.01,2013-06-13 20:18:00,
2013-06-13 10:23:00,75.2,68.2,30.09,NE,52,18.0,23.0,79,0.00,,,0.00,VWS V14.01,2013-06-13 20:23:00,
2013-06-13 10:28:00,75.4,69.2,30.09,NE,51,10.0,15.0,81,0.00,,,0.00,VWS V14.01,2013-06-13 20:28:00,
2013-06-13 10:33:00,75.9,69.3,30.09,NNE,15,19.0,19.0,80,0.00,,,0.00,VWS V14.01,2013-06-13 20:33:00,
2013-06-13 10:39:00,75.9,69.3,30.09,ESE,108,13.0,14.0,80,0.00,,,0.00,VWS V14.01,2013-06-13 20:39:00,
2013-06-13 10:44:00,75.9,68.9,30.09,East,84,11.0,15.0,79,0.00,,,0.00,VWS V14.01,2013-06-13 20:44:00,
2013-06-13 10:49:00,76.5,68.8,30.09,NE,55,13.0,15.0,77,0.00,,,0.00,VWS V14.01,2013-06-13 20:49:00,
2013-06-13 10:54:00,75.9,68.2,30.09,NE,52,14.0,18.0,77,0.00,,,0.00,VWS V14.01,2013-06-13 20:54:00,
2013-06-13 10:59:00,75.7,69.1,30.10,East,95,15.0,15.0,80,0.00,,,0.00,VWS V14.01,2013-06-13 20:59:00,
2013-06-13 11:04:00,76.1,69.5,30.09,East,86,13.0,14.0,80,0.00,,,0.00,VWS V14.01,2013-06-13 21:04:00,
2013-06-13 11:09:00,75.8,69.2,30.09,East,82,22.0,22.0,80,0.00,,,0.00,VWS V14.01,2013-06-13 21:09:00,
2013-06-13 11:14:00,76.1,69.8,30.09,ENE,57,12.0,20.0,81,0.00,,,0.00,VWS V14.01,2013-06-13 21:14:00,
2013-06-13 11:20:00,76.6,69.6,30.09,NE,55,12.0,12.0,79,0.00,,,0.00,VWS V14.01,2013-06-13 21:20:00,
2013-06-13 11:25:00,76.2,69.2,30.09,ENE,64,19.0,21.0,79,0.00,,,0.00,VWS V14.01,2013-06-13 21:25:00,
2013-06-13 11:30:00,75.9,68.6,30.09,NE,40,19.0,19.0,78,0.00,,,0.00,VWS V14.01,2013-06-13 21:30:00,
2013-06-13 11:35:00,75.9,68.9,30.10,East,85,19.0,24.0,79,0.00,,,0.00,VWS V14.01,2013-06-13 21:35:00,
2013-06-13 11:40:00,75.7,69.1,30.08,ENE,59,14.0,19.0,80,0.00,,,0.00,VWS V14.01,2013-06-13 21:40:00,
2013-06-13 11:45:00,75.6,69.0,30.09,ESE,106,22.0,22.0,80,0.00,,,0.00,VWS V14.01,2013-06-13 21:45:00,
2013-06-13 11:50:00,75.8,69.2,30.08,ESE,111,22.0,22.0,80,0.00,,,0.00,VWS V14.01,2013-06-13 21:50:00,
2013-06-13 11:55:00,76.0,69.0,30.08,NE,52,16.0,19.0,79,0.00,,,0.00,VWS V14.01,2013-06-13 21:55:00,
2013-06-13 12:00:00,75.9,68.9,30.08,ESE,113,28.0,28.0,79,0.00,,,0.00,VWS V14.01,2013-06-13 22:00:00,
2013-06-13 12:05:00,75.9,68.9,30.08,East,98,23.0,23.0,79,0.00,,,0.00,VWS V14.01,2013-06-13 22:05:00,
2013-06-13 12:10:00,75.5,68.9,30.08,East,100,13.0,13.0,80,0.00,,,0.00,VWS V14.01,2013-06-13 22:10:00,
2013-06-13 12:15:00,75.6,69.0,30.08,NE,42,20.0,20.0,80,0.00,,,0.00,VWS V14.01,2013-06-13 22:15:00,
2013-06-13 12:20:00,75.9,68.9,30.08,ENE,78,23.0,23.0,79,0.00,,,0.00,VWS V14.01,2013-06-13 22:20:00,
2013-06-13 12:25:00,75.9,68.9,30.08,NE,43,18.0,20.0,79,0.00,,,0.00,VWS V14.01,2013-06-13 22:25:00,
2013-06-13 12:30:00,76.1,69.8,30.08,ENE,59,20.0,20.0,81,0.00,,,0.00,VWS V14.01,2013-06-13 22:30:00,
2013-06-13 12:36:00,75.8,69.2,30.08,East,83,20.0,20.0,80,0.00,,,0.00,VWS V14.01,2013-06-13 22:36:00,
2013-06-13 12:41:00,75.6,69.0,30.08,ENE,72,13.0,13.0,80,0.00,,,0.00,VWS V14.01,2013-06-13 22:41:00,
2013-06-13 12:46:00,76.0,69.8,30.08,ENE,61,13.0,14.0,81,0.00,,,0.00,VWS V14.01,2013-06-13 22:46:00,
2013-06-13 12:51:00,75.9,68.9,30.08,ESE,109,17.0,17.0,79,0.00,,,0.00,VWS V14.01,2013-06-13 22:51:00,
2013-06-13 12:56:00,76.2,68.8,30.08,East,82,15.0,21.0,78,0.00,,,0.00,VWS V14.01,2013-06-13 22:56:00,
2013-06-13 13:01:00,76.0,69.0,30.08,NE,54,13.0,18.0,79,0.00,,,0.00,VWS V14.01,2013-06-13 23:01:00,
2013-06-13 13:06:00,76.2,69.2,30.07,ENE,73,20.0,21.0,79,0.00,,,0.00,VWS V14.01,2013-06-13 23:06:00,
2013-06-13 13:11:00,76.1,69.1,30.07,ENE,74,16.0,16.0,79,0.00,,,0.00,VWS V14.01,2013-06-13 23:11:00,
2013-06-13 13:16:00,76.0,69.0,30.07,ENE,64,10.0,15.0,79,0.00,,,0.00,VWS V14.01,2013-06-13 23:16:00,
2013-06-13 13:21:00,76.2,69.2,30.07,East,101,22.0,22.0,79,0.00,,,0.00,VWS V14.01,2013-06-13 23:21:00,
2013-06-13 13:27:00,76.4,69.0,30.07,ENE,59,16.0,16.0,78,0.00,,,0.00,VWS V14.01,2013-06-13 23:27:00,
2013-06-13 13:32:00,76.8,69.4,30.07,East,97,17.0,17.0,78,0.00,,,0.00,VWS V14.01,2013-06-13 23:32:00,
2013-06-13 13:37:00,76.6,68.9,30.07,NE,41,14.0,20.0,77,0.00,,,0.00,VWS V14.01,2013-06-13 23:37:00,
2013-06-13 13:42:00,77.1,69.3,30.07,NE,42,16.0,17.0,77,0.00,,,0.00,VWS V14.01,2013-06-13 23:42:00,
2013-06-13 13:47:00,76.8,69.1,30.07,East,100,23.0,23.0,77,0.00,,,0.00,VWS V14.01,2013-06-13 23:47:00,
2013-06-13 13:52:00,76.9,69.2,30.06,ENE,69,14.0,14.0,77,0.00,,,0.00,VWS V14.01,2013-06-13 23:52:00,
2013-06-13 13:57:00,76.7,69.7,30.07,ENE,66,14.0,19.0,79,0.00,,,0.00,VWS V14.01,2013-06-13 23:57:00,
2013-06-13 14:02:00,76.5,69.5,30.07,East,99,14.0,14.0,79,0.00,,,0.00,VWS V14.01,2013-06-14 00:02:00,
2013-06-13 14:07:00,76.3,69.3,30.07,ESE,110,11.0,11.0,79,0.00,,,0.00,VWS V14.01,2013-06-14 00:07:00,
2013-06-13 14:12:00,75.8,69.2,30.07,NE,56,10.0,16.0,80,0.00,,,0.00,VWS V14.01,2013-06-14 00:12:00,
2013-06-13 14:18:00,75.7,69.1,30.07,ESE,102,23.0,23.0,80,0.00,,,0.00,VWS V14.01,2013-06-14 00:18:00,
2013-06-13 14:23:00,75.4,69.2,30.07,East,82,19.0,19.0,81,0.00,,,0.00,VWS V14.01,2013-06-14 00:23:00,
2013-06-13 14:28:00,75.3,68.7,30.06,ENE,68,14.0,18.0,80,0.00,,,0.00,VWS V14.01,2013-06-14 00:28:00,
2013-06-13 14:33:00,75.8,69.6,30.06,ENE,62,13.0,14.0,81,0.00,,,0.00,VWS V14.01,2013-06-14 00:33:00,
2013-06-13 14:38:00,76.1,69.5,30.06,ENE,67,12.0,21.0,80,0.00,,,0.00,VWS V14.01,2013-06-14 00:38:00,
2013-06-13 14:43:00,75.7,69.5,30.06,ESE,105,14.0,17.0,81,0.00,,,0.00,VWS V14.01,2013-06-14 00:43:00,
2013-06-13 14:48:00,75.3,69.4,30.07,NE,44,17.0,17.0,82,0.00,,,0.00,VWS V14.01,2013-06-14 00:48:00,
2013-06-13 14:53:00,74.6,69.4,30.06,ENE,58,15.0,15.0,84,0.00,,,0.00,VWS V14.01,2013-06-14 00:53:00,
2013-06-13 14:59:00,74.7,69.2,30.07,ENE,66,13.0,13.0,83,0.00,,,0.00,VWS V14.01,2013-06-14 00:59:00,
2013-06-13 15:04:00,74.9,68.7,30.06,NNE,19,12.0,13.0,81,0.00,,,0.00,VWS V14.01,2013-06-14 01:04:00,
2013-06-13 15:09:00,74.9,69.0,30.07,NE,55,9.0,15.0,82,0.00,,,0.00,VWS V14.01,2013-06-14 01:09:00,
2013-06-13 15:14:00,74.9,69.0,30.06,NE,45,8.0,9.0,82,0.00,,,0.00,VWS V14.01,2013-06-14 01:14:00,
2013-06-13 15:19:00,75.0,69.1,30.06,ENE,63,7.0,12.0,82,0.00,,,0.00,VWS V14.01,2013-06-14 01:19:00,
2013-06-13 15:24:00,74.7,68.8,30.05,ENE,76,12.0,13.0,82,0.00,,,0.00,VWS V14.01,2013-06-14 01:24:00,
2013-06-13 15:29:00,75.2,69.0,30.05,ENE,70,10.0,11.0,81,0.00,,,0.00,VWS V14.01,2013-06-14 01:29:00,
2013-06-13 15:34:00,75.3,69.4,30.05,NNE,16,11.0,16.0,82,0.00,,,0.00,VWS V14.01,2013-06-14 01:34:00,
2013-06-13 15:39:00,75.0,69.5,30.05,ENE,76,12.0,14.0,83,0.00,,,0.00,VWS V14.01,2013-06-14 01:39:00,
2013-06-13 15:44:00,74.1,69.0,30.05,NE,54,20.0,20.0,84,0.00,,,0.00,VWS V14.01,2013-06-14 01:44:00,
2013-06-13 15:49:00,74.3,69.2,30.05,East,83,15.0,15.0,84,0.00,,,0.00,VWS V14.01,2013-06-14 01:49:00,
2013-06-13 15:54:00,74.6,69.1,30.05,NNE,31,11.0,14.0,83,0.00,,,0.00,VWS V14.01,2013-06-14 01:54:00,
2013-06-13 16:00:00,75.1,69.2,30.05,East,87,13.0,15.0,82,0.00,,,0.00,VWS V14.01,2013-06-14 02:00:00,
2013-06-13 16:05:00,74.9,69.0,30.05,NE,49,15.0,17.0,82,0.00,,,0.00,VWS V14.01,2013-06-14 02:05:00,
2013-06-13 16:10:00,74.5,69.7,30.05,East,90,14.0,16.0,85,0.00,,,0.00,VWS V14.01,2013-06-14 02:10:00,
2013-06-13 16:15:00,74.4,70.3,30.05,SE,130,15.0,15.0,87,0.00,,,0.00,VWS V14.01,2013-06-14 02:15:00,
2013-06-13 16:20:00,73.1,69.0,30.05,NE,51,25.0,25.0,87,0.00,,,0.00,VWS V14.01,2013-06-14 02:20:00,
2013-06-13 16:25:00,72.5,69.1,30.04,East,85,9.0,15.0,89,0.00,,,0.00,VWS V14.01,2013-06-14 02:25:00,
2013-06-13 16:30:00,72.5,69.1,30.05,East,99,23.0,23.0,89,0.00,,,0.00,VWS V14.01,2013-06-14 02:30:00,
2013-06-13 16:35:00,72.4,69.0,30.05,NE,55,13.0,22.0,89,0.00,,,0.00,VWS V14.01,2013-06-14 02:35:00,
2013-06-13 16:40:00,72.1,68.7,30.05,NE,46,19.0,19.0,89,0.00,,,0.00,VWS V14.01,2013-06-14 02:40:00,
2013-06-13 16:48:00,72.1,68.7,30.05,NNE,22,12.0,13.0,89,0.00,,,0.00,VWS V14.01,2013-06-14 02:48:00,
2013-06-13 16:54:00,72.4,69.0,30.05,ENE,57,10.0,14.0,89,0.00,,,0.00,VWS V14.01,2013-06-14 02:54:00,
2013-06-13 16:59:00,72.7,69.3,30.05,NE,43,19.0,19.0,89,0.00,,,0.00,VWS V14.01,2013-06-14 02:59:00,
2013-06-13 17:04:00,72.7,69.3,30.05,NE,54,19.0,19.0,89,0.00,,,0.00,VWS V14.01,2013-06-14 03:04:00,
2013-06-13 17:15:00,72.6,69.5,30.05,East,86,9.0,13.0,90,0.00,,,0.00,VWS V14.01,2013-06-14 03:15:00,
2013-06-13 17:20:00,72.6,69.5,30.05,ENE,57,7.0,16.0,90,0.00,,,0.00,VWS V14.01,2013-06-14 03:20:00,
2013-06-13 17:26:00,72.6,69.2,30.05,ENE,61,15.0,19.0,89,0.00,,,0.00,VWS V14.01,2013-06-14 03:26:00,
2013-06-13 17:31:00,72.5,69.1,30.05,ENE,63,15.0,16.0,89,0.00,,,0.00,VWS V14.01,2013-06-14 03:31:00,
2013-06-13 17:36:00,72.6,69.5,30.05,ENE,61,7.0,10.0,90,0.00,,,0.00,VWS V14.01,2013-06-14 03:36:00,
2013-06-13 17:46:00,72.2,69.1,30.06,ENE,65,15.0,15.0,90,0.00,,,0.00,VWS V14.01,2013-06-14 03:46:00,
2013-06-13 17:51:00,71.8,69.0,30.06,NNE,24,7.0,15.0,91,0.00,,,0.00,VWS V14.01,2013-06-14 03:51:00,
2013-06-13 17:56:00,71.6,68.8,30.06,ESE,102,9.0,11.0,91,0.00,,,0.00,VWS V14.01,2013-06-14 03:56:00,
2013-06-13 18:01:00,71.5,69.1,30.06,ENE,66,14.0,18.0,92,0.00,,,0.00,VWS V14.01,2013-06-14 04:01:00,
2013-06-13 18:02:00,71.5,69.1,30.06,ENE,63,11.0,14.0,92,0.00,,,0.00,VWS V14.01,2013-06-14 04:02:00,
2013-06-13 18:07:00,71.5,69.1,30.06,NE,52,12.0,12.0,92,0.00,,,0.00,VWS V14.01,2013-06-14 04:07:00,
2013-06-13 18:12:00,71.6,68.8,30.07,NE,54,11.0,11.0,91,0.00,,,0.00,VWS V14.01,2013-06-14 04:12:00,
2013-06-13 18:19:00,71.7,68.9,30.07,ENE,62,6.0,12.0,91,0.00,,,0.00,VWS V14.01,2013-06-14 04:19:00,
2013-06-13 18:24:00,71.8,69.0,30.07,NE,54,11.0,11.0,91,0.00,,,0.00,VWS V14.01,2013-06-14 04:24:00,
2013-06-13 18:29:00,71.9,68.8,30.07,East,81,12.0,13.0,90,0.00,,,0.00,VWS V14.01,2013-06-14 04:29:00,
2013-06-13 18:34:00,71.6,68.2,30.07,NE,43,8.0,12.0,89,0.00,,,0.00,VWS V14.01,2013-06-14 04:34:00,
2013-06-13 18:39:00,71.5,68.4,30.07,NE,52,13.0,14.0,90,0.00,,,0.00,VWS V14.01,2013-06-14 04:39:00,
2013-06-13 18:44:00,71.4,68.3,30.07,NE,45,10.0,10.0,90,0.00,,,0.00,VWS V14.01,2013-06-14 04:44:00,
2013-06-13 18:49:00,71.4,68.3,30.07,NE,39,14.0,14.0,90,0.00,,,0.00,VWS V14.01,2013-06-14 04:49:00,
2013-06-13 18:54:00,71.3,68.5,30.07,NE,54,13.0,14.0,91,0.00,,,0.00,VWS V14.01,2013-06-14 04:54:00,
2013-06-13 18:59:00,71.3,68.5,30.07,NE,39,9.0,10.0,91,0.00,,,0.00,VWS V14.01,2013-06-14 04:59:00,
2013-06-13 19:04:00,71.1,68.3,30.07,NE,42,10.0,13.0,91,0.00,,,0.00,VWS V14.01,2013-06-14 05:04:00,
2013-06-13 19:09:00,70.8,67.7,30.07,NE,37,14.0,14.0,90,0.00,,,0.00,VWS V14.01,2013-06-14 05:09:00,
2013-06-13 19:15:00,70.9,67.8,30.07,North,350,14.0,17.0,90,0.00,,,0.00,VWS V14.01,2013-06-14 05:15:00,
2013-06-13 19:20:00,71.1,68.0,30.08,NE,35,7.0,15.0,90,0.00,,,0.00,VWS V14.01,2013-06-14 05:20:00,
2013-06-13 19:25:00,71.2,67.8,30.07,NE,50,6.0,11.0,89,0.00,,,0.00,VWS V14.01,2013-06-14 05:25:00,
2013-06-13 19:30:00,71.1,67.7,30.08,NNE,23,6.0,6.0,89,0.00,,,0.00,VWS V14.01,2013-06-14 05:30:00,
2013-06-13 19:35:00,70.9,67.5,30.08,NE,37,7.0,11.0,89,0.00,,,0.00,VWS V14.01,2013-06-14 05:35:00,
2013-06-13 19:40:00,70.9,67.5,30.08,NNE,21,14.0,14.0,89,0.00,,,0.00,VWS V14.01,2013-06-14 05:40:00,
2013-06-13 19:45:00,71.0,67.6,30.08,ENE,69,7.0,9.0,89,0.00,,,0.00,VWS V14.01,2013-06-14 05:45:00,
2013-06-13 19:50:00,71.1,68.0,30.08,NE,42,10.0,10.0,90,0.00,,,0.00,VWS V14.01,2013-06-14 05:50:00,
2013-06-13 19:55:00,71.1,68.3,30.08,NE,47,11.0,14.0,91,0.00,,,0.00,VWS V14.01,2013-06-14 05:55:00,
2013-06-13 20:00:00,71.0,68.6,30.08,NNE,21,6.0,6.0,92,0.00,,,0.00,VWS V14.01,2013-06-14 06:00:00,
2013-06-13 20:05:00,71.0,68.6,30.08,ENE,58,4.0,6.0,92,0.00,,,0.00,VWS V14.01,2013-06-14 06:05:00,
2013-06-13 20:10:00,71.1,68.7,30.09,East,81,8.0,8.0,92,0.00,,,0.00,VWS V14.01,2013-06-14 06:10:00,
2013-06-13 20:16:00,71.1,68.7,30.09,NE,35,6.0,10.0,92,0.00,,,0.00,VWS V14.01,2013-06-14 06:16:00,
2013-06-13 20:21:00,70.8,68.1,30.09,NE,51,8.0,10.0,91,0.00,,,0.00,VWS V14.01,2013-06-14 06:21:00,
2013-06-13 20:26:00,70.8,67.7,30.08,NE,54,7.0,8.0,90,0.00,,,0.00,VWS V14.01,2013-06-14 06:26:00,
2013-06-13 20:31:00,70.9,67.5,30.08,NE,38,5.0,8.0,89,0.00,,,0.00,VWS V14.01,2013-06-14 06:31:00,
2013-06-13 20:36:00,70.9,67.5,30.09,East,91,8.0,13.0,89,0.00,,,0.00,VWS V14.01,2013-06-14 06:36:00,
2013-06-13 20:41:00,70.7,67.6,30.09,NNE,26,11.0,11.0,90,0.00,,,0.00,VWS V14.01,2013-06-14 06:41:00,
2013-06-13 20:46:00,70.5,67.8,30.09,NNE,27,8.0,13.0,91,0.00,,,0.00,VWS V14.01,2013-06-14 06:46:00,
2013-06-13 20:52:00,70.4,68.0,30.09,North,2,11.0,11.0,92,0.00,,,0.00,VWS V14.01,2013-06-14 06:52:00,
2013-06-13 20:57:00,70.5,68.1,30.09,NNE,33,9.0,10.0,92,0.00,,,0.00,VWS V14.01,2013-06-14 06:57:00,
2013-06-13 21:02:00,70.5,68.1,30.09,NNE,21,11.0,11.0,92,0.00,,,0.00,VWS V14.01,2013-06-14 07:02:00,
2013-06-13 21:07:00,70.4,67.7,30.09,NNE,21,14.0,19.0,91,0.00,,,0.00,VWS V14.01,2013-06-14 07:07:00,
2013-06-13 21:12:00,70.2,67.4,30.09,NE,54,5.0,11.0,91,0.00,,,0.00,VWS V14.01,2013-06-14 07:12:00,
2013-06-13 21:17:00,70.3,67.6,30.09,NNE,30,16.0,16.0,91,0.00,,,0.00,VWS V14.01,2013-06-14 07:17:00,
2013-06-13 21:22:00,70.4,68.0,30.09,North,10,8.0,15.0,92,0.00,,,0.00,VWS V14.01,2013-06-14 07:22:00,
2013-06-13 21:27:00,70.5,67.8,30.09,NNE,19,16.0,17.0,91,0.00,,,0.00,VWS V14.01,2013-06-14 07:27:00,
2013-06-13 21:33:00,70.5,67.8,30.09,NE,42,13.0,13.0,91,0.00,,,0.00,VWS V14.01,2013-06-14 07:33:00,
2013-06-13 21:38:00,70.6,67.8,30.09,NNE,19,10.0,11.0,91,0.00,,,0.00,VWS V14.01,2013-06-14 07:38:00,
2013-06-13 21:43:00,70.8,68.4,30.09,NNE,31,12.0,12.0,92,0.00,,,0.00,VWS V14.01,2013-06-14 07:43:00,
2013-06-13 21:49:00,70.8,68.4,30.09,NNE,32,9.0,10.0,92,0.00,,,0.00,VWS V14.01,2013-06-14 07:49:00,
2013-06-13 21:54:00,70.7,68.3,30.10,NNE,23,18.0,18.0,92,0.00,,,0.00,VWS V14.01,2013-06-14 07:54:00,
2013-06-13 21:59:00,70.6,67.8,30.10,NNE,21,11.0,11.0,91,0.00,,,0.00,VWS V14.01,2013-06-14 07:59:00,
2013-06-13 22:04:00,70.6,67.8,30.09,NNE,25,11.0,11.0,91,0.00,,,0.00,VWS V14.01,2013-06-14 08:04:00,
2013-06-13 22:09:00,70.7,67.9,30.10,NNE,19,10.0,13.0,91,0.00,,,0.00,VWS V14.01,2013-06-14 08:09:00,
2013-06-13 22:14:00,70.8,67.7,30.10,NNE,25,13.0,16.0,90,0.00,,,0.00,VWS V14.01,2013-06-14 08:14:00,
2013-06-13 22:19:00,70.9,67.5,30.10,NNE,21,14.0,14.0,89,0.00,,,0.00,VWS V14.01,2013-06-14 08:19:00,
2013-06-13 22:24:00,70.9,67.5,30.10,NNE,12,15.0,15.0,89,0.00,,,0.00,VWS V14.01,2013-06-14 08:24:00,
2013-06-13 22:30:00,70.9,67.5,30.10,NNE,23,11.0,18.0,89,0.00,,,0.00,VWS V14.01,2013-06-14 08:30:00,
2013-06-13 22:35:00,70.9,67.5,30.09,NE,50,4.0,12.0,89,0.00,,,0.00,VWS V14.01,2013-06-14 08:35:00,
2013-06-13 22:40:00,70.9,67.5,30.09,NNE,23,6.0,13.0,89,0.00,,,0.00,VWS V14.01,2013-06-14 08:40:00,
2013-06-13 22:45:00,70.8,67.7,30.10,North,9,16.0,16.0,90,0.00,,,0.00,VWS V14.01,2013-06-14 08:45:00,
2013-06-13 22:51:00,70.7,67.6,30.10,NE,55,12.0,12.0,90,0.00,,,0.00,VWS V14.01,2013-06-14 08:51:00,
2013-06-13 22:56:00,70.7,67.3,30.10,NE,42,10.0,10.0,89,0.00,,,0.00,VWS V14.01,2013-06-14 08:56:00,
2013-06-13 23:01:00,70.8,67.7,30.10,NE,54,14.0,14.0,90,0.00,,,0.00,VWS V14.01,2013-06-14 09:01:00,
2013-06-13 23:06:00,70.9,68.2,30.10,NNE,32,9.0,12.0,91,0.00,,,0.00,VWS V14.01,2013-06-14 09:06:00,
2013-06-13 23:12:00,70.8,68.1,30.10,NE,38,11.0,11.0,91,0.00,,,0.00,VWS V14.01,2013-06-14 09:12:00,
2013-06-13 23:17:00,70.7,68.3,30.10,NE,46,4.0,5.0,92,0.00,,,0.00,VWS V14.01,2013-06-14 09:17:00,
2013-06-13 23:22:00,70.5,68.1,30.10,NNE,30,11.0,15.0,92,0.00,,,0.00,VWS V14.01,2013-06-14 09:22:00,
2013-06-13 23:27:00,70.4,68.0,30.10,NE,46,8.0,10.0,92,0.00,,,0.00,VWS V14.01,2013-06-14 09:27:00,
2013-06-13 23:32:00,70.5,68.1,30.09,NNE,31,10.0,11.0,92,0.00,,,0.00,VWS V14.01,2013-06-14 09:32:00,
2013-06-13 23:37:00,70.6,68.5,30.09,NE,39,9.0,13.0,93,0.00,,,0.00,VWS V14.01,2013-06-14 09:37:00,
2013-06-13 23:42:00,70.6,68.5,30.09,NNE,23,5.0,5.0,93,0.00,,,0.00,VWS V14.01,2013-06-14 09:42:00,
2013-06-13 23:47:00,70.7,68.3,30.09,ENE,58,5.0,9.0,92,0.00,,,0.00,VWS V14.01,2013-06-14 09:47:00,
2013-06-13 23:52:00,70.7,68.3,30.09,NNE,33,7.0,8.0,92,0.00,,,0.00,VWS V14.01,2013-06-14 09:52:00,
2013-06-13 23:57:00,70.7,68.3,30.09,ENE,64,9.0,11.0,92,0.00,,,0.00,VWS V14.01,2013-06-14 09:57:00,